Location: Oriwa
(40.7500°S, 175.3333°E)
Time: 12:10:06
(UTC+00:00)

Cosmos 1656 - Pass Details

Date: 03 February 2023
Orbit: 798 x 848 km, 71.1° (Epoch: 30 March)

Event Time Altitude Azimuth Distance (km) Brightness Sun altitude
Exits shadow 16:03:16 22° 318° (NW) 1,784 4.8 -14.8°
Maximum altitude 16:06:58 61° 244° (WSW) 964 3.9 -14.2°
Drops below altitude 10° 16:12:40 10° 163° (SSE) 2,502 7.0 -13.4°
Sets 16:15:12 0° 159° (SSE) 3,447 7.9 -13.0°
